User: anonymous   Login
Location: Wawayanda State Park
(41.1833°N, 74.4333°W)
Time: 06:59:18
(UTC-04:00)
Language:

RESURS DK-1 - Orbit

View from above orbital plane
View from above orbital plane
View from above satellite
View from above satellite

Ground track
Ground track

The orbit data is extracted from the following two-line orbital elements,

1 29228U 06021A   17292.16194663  .00000172  00000-0  20390-4 0  9997
2 29228  69.9341 142.6477 0004200 192.8179 167.2876 15.02226249626713
Epoch (UTC): 19 October 2017 03:53:12
Eccentricity: 0.0004200
inclination: 69.9341°
perigee height: 557 km
apogee height: 563 km
right ascension of ascending node: 142.6477°
argument of perigee: 192.8179°
revolutions per day: 15.02226249
mean anomaly at epoch: 167.2876°
orbit number at epoch: 62671

The dashed part of the orbit path shows where the satellite is in the earth's shadow,  

DLR